map of POL home
POL - Airport
Location
City:  Pemba, Cabo Delgado, Mozambique
Near (Alt.):Porto Amelia
Name:Pemba Airport
ICAO:FQPB
IATA:POL

Details
Type:Airport (Aerodrome, Airfield)
Use:Public/Civil
Latitude:1259'12"S (-12.986752)
Longitude:4031'21"E (40.522492)
Datum:WGS 1984
Elevation:331 ft (101 m)
Variation:6.84W (WMM2015v2 magnetic declination)
-0.05 annual change
Runways:2
Longest:5905 × 148 ft (1800 × 45 m), paved

Time
Time Zone:UTC+2
Local Time:

Weather
METAR:FQPB 041400Z 11007KT 070V140 9999 BKN020 FEW025 SCT100 BKN/// 29/25 Q1010 RMK CB TO SW/W/NW/N
TAF:FQPB 041000Z 0412/0512 09010KT 9999 SCT020 FEW025CB SCT050 TX29/0413Z TN25/0503Z PROB30
TEMPO 0412/0414 5000 -TSRA SCT015 FEW020CB
BECMG 0418/0420 02008KT SCT020
BECMG 0500/0502 VRB02KT

Related Locations
Nearby:
Farthest:ITO: 11314 mi / 18208 km
Hilo [Hilo Intl], Hawaii, HI, US

Find:

   beyond  
but within

Other Information
Maps:
NOTAMs:
Links:
Sources:

  
  • flag of Mozambique
  

Sectional Chart

Flight Planning
at skyvector.com

Satellite Image

Google Maps Satellite view

 

Copyright © 2004-2019 Karl L. Swartz. All rights reserved.
The Great Circle Mapper name and logo are trademarks of the Great Circle Mapper.
All other trademarks mentioned herein belong to their respective owners.
Please see credits for attibutions and further copyright information.

  Follow gcmap on Facebook Follow gcmap on Twitter GCmap on LinkedIn

hCard Microformat

Geo Microformat